Location: Stoke Bliss
(52.2667°N, 2.5167°W)
Time: 18:48:15
(UTC+00:00)

ERS-2 - Pass Details

Date: 03 March 2021
Orbit: 492 x 496 km, 98.6° (Epoch: 17 April)

Event Time Altitude Azimuth Distance (km) Brightness Sun altitude
Rises 18:21:40 0° 25° (NNE) 2,597 5.5 -5.1°
Reaches altitude 10° 18:24:02 10° 40° (NE) 1,708 4.4 -5.5°
Maximum altitude 18:27:05 24° 96° (E) 1,061 3.2 -5.9°
Drops below altitude 10° 18:30:07 10° 152° (SSE) 1,697 4.6 -6.4°
Sets 18:32:27 0° 166° (SSE) 2,575 5.6 -6.8°
